www.pogodaiklimat.ru

Погода и климат >> Архив погоды >> Таиланд >> Nongbualamphu


ПОГОДА в Nongbualamphu

  • Прогноз погоды в Nongbualamphu
  • Монитор погоды в Nongbualamphu
  • Климат города

АРХИВ ПОГОДЫ в Nongbualamphu

Время (UTC), дата Ветер
(напр.,м/с)
 
Видим.   Явления Облачность Т
(С)
Тd
(С)
f
(%)
Тe
(С)
Тes
(С)
Комфортность P
(гПа)
Po
(гПа)
Тmin
(С)
Tmax
(С)
R
(мм)
R24
(мм)
S
(см)
21 11.08 штиль 0 9000 м дымка 8/0
[Ac und Cs]
+25.5 +24.6 95 +36 +36 очень
душно
1002.0 976.3
00 12.08 штиль 0 9000 м дымка 8/3 1000 м
[Sc diur, vesp Ac As Cs]
+26.5 +25.2 93 +38 +39 очень
душно
1002.9 977.2 +24.5
03 12.08 ЮЗ 2 12 км 8/4 1000 м
[Sc Cs]
+30.2 +24.2 70 +42 +50 опасность
перегрева
1002.5 977.1
06 12.08 З 2 12 км 8/6 1000 м
[Sc Cs]
+32.4 +24.0 61 +44 +52 опасность
перегрева
1001.5 976.3
09 12.08 ЮЗ 5 12 км 8/5 1000 м
[Sc Cs]
+33.0 +23.7 58 +44 +46 опасность
перегрева
999.2 974.1
12 12.08 В 4 12 км 9/4 600 м
[Cb cap Ac As Cs]
+28.0 +25.1 84 +40 +40 очень
душно
1000.3 974.8 +33.2
15 12.08 штиль 0 10 км 8/3 1000 м
[Sc Ac As Cs]
+27.3 +24.7 86 +39 +39 очень
душно
1004.6 978.9
18 12.08 штиль 0 10 км 8/3 1000 м
[Sc Ac As Cs]
+26.5 +24.3 88 +37 +37 очень
душно
1002.6 976.9
21 12.08 штиль 0 10 км 9/3 1000 м
[Sc Ac As Cs]
+25.0 +23.5 91 +34 +34 очень
душно
1001.5 975.7
00 13.08 штиль 0 11 км слабый дождь 9/3 600 м
[Sc Ac As Cs]
+24.9 +23.6 92 +34 +35 очень
душно
1002.6 976.8 +24.8 0.2
03 13.08 ЮЗ 3 9000 м слабый дождь 10/4 600 м
[Sc Ac As Cs]
+27.2 +24.0 83 +38 +42 очень
душно
1003.6 978.0 0.2
06 13.08 Ю 6 10 км {дождь} 10/4 600 м
[Sc Ac As Cs]
+30.0 +24.1 71 +42 +44 опасность
перегрева
1002.2 976.9 0.0
09 13.08 З 3 14 км 10/4 600 м
[Sc diur, vesp Ac trans Cs]
+29.3 +22.9 68 +39 +41 очень
душно
1001.1 975.6
12 13.08 ЮЗ 5 11 км слабый дождь 10/4 600 м
[Sc Ac As Cs]
+30.0 +24.3 72 +42 +42 опасность
перегрева
1001.0 975.6 +30.5 0.0
15 13.08 ЮВ 2 11 км 6/0
[Ac trans Cs]
+27.0 +24.1 84 +37 +37 очень
душно
1003.5 977.8
18 13.08 штиль 0 11 км 6/0
[Ac trans Cs]
+26.6 +24.3 87 +37 +37 очень
душно
1003.2 977.5
21 13.08 штиль 0 6000 м слабый дождь 10/8 300 м
[Frnb As op]
+25.0 +23.5 91 +34 +34 очень
душно
1002.7 976.8 6
00 14.08 В 3 4000 м слабый дождь 10/8 300 м
[Frnb As op]
+24.2 +24.0 99 +33 +33 очень
душно
1003.5 977.6 +24.1 10
03 14.08 Ю 2 9000 м в посл. час дождь 10/4 600 м
[Sc diur, vesp Ac und]
+25.7 +24.7 94 +36 +39 очень
душно
1004.1 978.3 0.9
06 14.08 Ю 3 9000 м дымка {дождь} 10/3 600 м
[Sc diur, vesp Ac und Cs]
+28.2 +25.8 87 +42 +48 опасность
перегрева
1003.6 978.0 1
09 14.08 штиль 0 11 км {дождь} 10/3 600 м
[Sc diur, vesp Ac As Cs]
+29.6 +25.5 79 +44 +47 опасность
перегрева
1001.0 975.6 0.2
12 14.08 штиль 0 10 км {дождь} 10/3 600 м
[Sc diur, vesp Ac und Cs]
+28.2 +25.5 85 +41 +41 опасность
перегрева
1001.9 976.4 +30.2 1
15 14.08 штиль 0 9000 м дымка 9/3 600 м
[Sc diur, vesp Ac As Cs]
+27.2 +25.5 90 +40 +40 очень
душно
1004.3 978.6
18 14.08 штиль 0 7000 м дымка 8/0
[Ac As Cs]
+26.5 +25.4 94 +39 +39 очень
душно
1004.4 978.7
21 14.08 штиль 0 7000 м в посл. час дождь 10/3 600 м
[Sc diur, vesp Ac As Cs]
+25.7 +25.1 96 +37 +37 очень
душно
1004.4 978.6 0.4
00 15.08 штиль 0 9000 м дымка {дождь} 9/0
[Ac As Cs]
+25.5 +24.8 96 +36 +37 очень
душно
1004.7 978.9 +24.1
03 15.08 штиль 0 11 км 8/3 1000 м
[Sc Ac As Cs]
+28.0 +24.3 80 +39 +49 очень
душно
1005.3 979.7
06 15.08 штиль 0 12 км 9/6 600 м
[Sc Ac As Cs]
+29.2 +24.6 76 +41 +48 опасность
перегрева
1004.4 978.9
09 15.08 З 2 12 км 9/5 1000 м
[Sc Ac As Cs]
+30.5 +24.8 72 +44 +46 опасность
перегрева
1002.4 977.0
12 15.08 ЮЗ 2 12 км 8/3 1000 м
[Sc Ac As Cs]
+27.8 +23.1 76 +37 +37 очень
душно
1001.9 976.3 +30.8
15 15.08 штиль 0 10 км 6/0
[Cs]
+26.3 +24.4 89 +37 +37 очень
душно
1004.0 978.3
18 15.08 штиль 0 10 км 6/1 1000 м
[Sc Cs]
+25.0 +23.5 91 +34 +34 очень
душно
1003.5 977.7
21 15.08 штиль 0 10 км 6/0
[Cs]
+24.5 +23.8 96 +33 +33 очень
душно
1001.8 976.0
00 16.08 штиль 0 11 км 6/0
[Cs]
+24.0 +23.1 95 +32 +34 очень
душно
1002.2 976.3 +23.5
03 16.08 СЗ 4 15 км 10/0
[Ac trans Cs]
+29.2 +23.4 71 +40 +47 очень
душно
1002.4 977.0
06 16.08 З 6 15 км 10/0
[Ac As Cs]
+30.6 +24.0 68 +42 +47 опасность
перегрева
1000.9 975.6
09 16.08 З 3 15 км 10/0
[Ac As Cs]
+30.0 +22.7 65 +40 +43 очень
душно
1000.1 974.8
12 16.08 штиль 0 12 км 10/0
[Ac trans Cs]
+28.0 +25.1 84 +40 +40 очень
душно
1001.5 976.0 +32.5
15 16.08 штиль 0 11 км 9/0
[Ac trans Cs]
+27.0 +24.1 84 +37 +37 очень
душно
1000.7 975.1
18 16.08 штиль 0 9000 м слабый дождь 10/4 600 м
[Sc Ac As Cs]
+26.6 +25.7 95 +39 +39 очень
душно
998.8 973.2 0.3
21 16.08 штиль 0 10 км {дождь} 10/0
[Ac As Cs]
+25.6 +24.1 91 +35 +35 очень
душно
997.3 971.7 0.4
00 17.08 штиль 0 11 км {дождь} 10/0
[Ac As Cs]
+25.5 +24.8 96 +36 +37 очень
душно
997.8 972.1 +25.2 0.7
03 17.08 З 4 11 км 10/3 1000 м
[Sc diur, vesp Ac und Cs]
+26.3 +24.4 89 +37 +41 очень
душно
999.0 973.4
06 17.08 З 2 12 км {дождь} 10/4 600 м
[Sc diur, vesp Ac und Cs]
+28.7 +23.8 75 +40 +46 очень
душно
997.6 972.2 0.1
09 17.08 З 2 12 км 10/4 600 м
[Sc As op Cs]
+28.3 +23.5 75 +38 +41 очень
душно
996.8 971.4
12 17.08 штиль 0 12 км 10/3 600 м
[Sc Ac und Cs]
+27.5 +24.8 85 +39 +39 очень
душно
997.6 972.1 +29.0
15 17.08 ЮВ 2 11 км 10/3 600 м
[Sc diur, vesp Ac As Cs]
+26.4 +24.7 90 +37 +37 очень
душно
999.8 974.2
18 17.08 штиль 0 10 км 8/3 600 м
[Sc diur, vesp Ac As Cs]
+26.1 +24.2 89 +36 +36 очень
душно
999.5 973.8
21 17.08 штиль 0 10 км 8/0
[Ac As Cs]
+24.7 +23.7 94 +34 +34 очень
душно
999.5 973.8
00 18.08 штиль 0 10 км 8/3 1000 м
[Sc diur, vesp Ac As Cs]
+26.3 +24.7 91 +37 +38 очень
душно
1000.0 974.4 +24.6
03 18.08 штиль 0 12 км 8/6 1000 м
[Sc Ac As Cs]
+29.2 +23.9 73 +40 +47 очень
душно
1001.0 975.6
06 18.08 ЮЗ 2 12 км 8/6 1000 м
[Sc Cs]
+31.4 +24.4 66 +44 +51 опасность
перегрева
999.7 974.5
09 18.08 В 3 12 км в посл. час дождь 8/3 1000 м
[Sc Cs]
+27.5 +25.4 88 +40 +44 очень
душно
998.6 973.1 3
12 18.08 В 3 10 км слабый дождь 9/3 600 м
[Frnb Ac As Cs]
+25.2 +24.9 98 +36 +36 очень
душно
1000.3 974.5 +31.6 8
15 18.08 В 2 10 км {дождь} 8/3 1000 м
[Sc Ac As Cs]
+25.0 +24.3 96 +35 +35 очень
душно
1002.6 976.8 2
18 18.08 штиль 0 10 км {дождь} 8/3 1000 м
[Sc Ac As Cs]
+24.8 +24.4 98 +35 +35 очень
душно
1002.7 976.9

 

Местоположение метеостанции Nongbualamphu (Таиланд): широта 17.23 долгота 102.43 высота над уровнем моря 228 м.

В архиве по умолчанию представлена погода в Nongbualamphu за последнюю неделю. Архивные данные за месяц целиком и за предыдущие месяцы, начиная с января 2011 года, Вы можете получить, выбрав интересующий диапазон дат из раскрывающегося списка и нажав кнопку "Ввод!".


*Определитесь, кто Вы:
робот инопланетянин человек

Внимание! Время в таблицах - всемирное. Для получения местного времени необходимо прибавить поправку, которая в Nongbualamphu равна 7 ч.

Смотрите также архив погоды в соседних городах и на ближайших метеорологических станциях:

Погода в Udon Thani (Таиланд) (43 км)
Погода в Loei Agromet (Таиланд) (77 км)
Погода в Nong Khai (Таиланд) (77 км)
Погода в Loei (Таиланд) (78 км)
Погода в Vientiane (Лаос) (85 км)
Погода в Khon Kaen (Таиланд) (99 км)
Погода в Tha Phra Agromet (Таиланд) (108 км)
Погода в Thangone (Лаос) (119 км)
Погода в Kosumphisai (Таиланд) (130 км)
Погода в Lomsak (Таиланд) (136 км)

Пояснения к столбцам:

Ветер - указаны скорость ветра в м/с - средняя за 10 мин, порывы в срок и между сроками (в фигурных скобках) и направление, откуда дует ветер: С - северный, СВ - северо-восточный, В - восточный, ЮВ - юго-восточный, Ю - южный, ЮЗ - юго-западный, З - западный, СЗ - северо-западный.
Видимость - горизонтальная дальность видимости в метрах или километрах. При видимости от 1 до 10 км при отсутствии осадков обычно наблюдается дымка, при ухудшении видимости до 1 км и менее - туман. В сухую погоду видимость может ухудшаться дымом, пылью или мглою.
Явления - указаны атмосферные явления, наблюдавшиеся в срок или в последний час перед сроком; фигурными скобками обозначены явления, наблюдавшиеся между сроками (за 1-3 часа до срока); квадратными скобками обозначены град или гололедные отложения с указанием их диаметра в мм.
Облачность - указаны через наклонную черту общая и нижняя облачность в баллах и высота нижней границы облаков в метрах; квадратными скобками обозначены формы облаков: Ci - перистые, Cs - перисто-слоистые, Cc - перисто-кучевые, Ac - высококучевые, As - высокослоистые, Sc - слоисто-кучевые, Ns - слоисто-дождевые, Cu - кучевые, Cb - кучево-дождевые. Подробнее классификацию облаков см. в Атласе облаков (PDF).
T - Температура воздуха - температура, измеренная на высоте 2 м над землей.
Td - Температура точки росы - температура, при понижении до которой содержащийся в воздухе водяной пар достигнет насыщения.
f - Относительная влажность воздуха - влажноcть воздуха, измеренная на высоте 2 м над землей.
Te - Эффективная температура - температура, которую ощущает одетый по сезону человек в тени. Характеристика душности погоды. При расчете учитывается влияние влажности воздуха и скорости ветра на теплоощущения человека.
Tes - Эффективная температура на солнце - температура, которую ощущает человек, с поправкой на солнечный нагрев. Характеристика знойности погоды. Зависит от высоты солнца над горизонтом, облачности и скорости ветра. Ночью, в пасмурную погоду, а также при ветре 12 м/с и более поправка равна нулю.
P - Атмосферное давление - приведенное к уровню моря атмосферное давление.
Po - Атмосферное давление - измеренное на уровне метеостанции атмосферное давление.
Tmin - Минимальная температура - минимум температуры воздуха на высоте 2 м над землей.
Tmax - Максимальная температура - максимум температуры воздуха на высоте 2 м над землей.
R - Количество осадков - Количество выпавших осадков за период времени, мм. При наведении курсора мыши на число - период времени, за который выпало указанное количество осадков.
R24 - Количество осадков - Количество выпавших осадков за 24 часа, мм.
S - Снежный покров - Высота снежного покрова, см. При наведении курсора мыши на число - состояние снежного покрова и степень покрытия местности в баллах.